Location: Charroux
(46.1847°N, 3.1616°E)
Time: 02:35:47
(UTC+00:00)

Daily predictions for brighter satellites

Satellite Brightness Start Highest point End
(mag) Time Altitude Azimuth Time Altitude Azimuth Time Altitude Azimuth
ATLAS 3B R/B 4.3 03:07:46 27° NE 03:07:46 27° NE 03:12:26 10° E
Cosmos 1980 Rocket 4.3 03:22:11 23° ENE 03:22:11 23° ENE 03:24:35 10° NE
CENTAUR R/B 3.8 03:25:43 47° NNE 03:26:22 48° NE 03:34:39 10° ESE
USA 215 4.3 03:26:23 10° E 03:31:26 38° NE 03:31:26 38° NE
ATLAS 2AS CENTAUR R/B 3.6 03:55:42 38° SSE 03:58:25 53° ESE 04:06:07 10° NE
USA 238 DEB 4.2 04:09:31 53° S 04:09:31 53° S 04:15:08 10° SSE
USA 238 4.1 04:09:35 54° S 04:09:35 54° S 04:15:14 10° SSE
Cosmos 2322 Rocket 4.3 04:07:28 10° SSE 04:11:50 23° E 04:16:14 10° NE
Cosmos 2263 Rocket 2.8 04:13:22 50° NE 04:13:53 52° ENE 04:19:23 10° SE
Meteor 1-21 Rocket 4.3 04:23:34 77° NE 04:23:50 79° ENE 04:29:47 10° SSE
CZ-2C R/B 4.3 04:19:23 10° NNE 04:21:06 22° N 04:21:06 22° N
Lacrosse 5 rocket 3.7 04:27:57 19° NNE 04:27:57 19° NNE 04:30:19 10° NE
Cosmos 972 Rocket 4.2 04:33:04 78° S 04:33:04 78° S 04:38:05 10° SSE
BREEZE-M DEB (TANK) 4.4 04:33:26 50° ENE 04:33:26 50° ENE 04:38:58 10° E
Cosmos 1953 Rocket 4.3 04:37:11 50° NE 04:37:38 52° ENE 04:41:54 10° SSE
ALOS 3.5 04:36:19 10° NNE 04:40:45 41° E 04:45:08 10° SSE
SKYMED 2 4.1 04:37:26 10° SSE 04:41:42 58° ENE 04:42:08 55° NE
Cosmos 2344 3.6 04:40:58 54° WNW 04:42:06 59° NW 04:50:23 10° NE
SL-8 Rocket 4.3 04:36:29 10° N 04:42:38 63° ENE 04:48:43 10° SSE
FENGYUN 3A 4.5 04:44:01 10° NNE 04:49:18 50° E 04:54:32 10° S
Cosmos 2181 Rocket 4.3 04:44:14 10° S 04:50:23 68° E 04:56:41 10° NNE
STARLINK 1011 4.3 04:51:37 45° ESE 04:51:37 45° ESE 04:54:42 10° ENE
STARLINK-79 4.5 04:53:32 41° NNE 04:53:32 41° NNE 04:56:25 10° NE
SL-16 R/B 2.7 04:48:13 10° S 04:53:45 58° ESE 04:59:19 10° NNE
STARLINK-78 4.4 04:55:08 42° NNE 04:55:08 42° NNE 04:58:06 10° NE
STARLINK 1036 4.2 04:54:50 49° ESE 04:54:50 49° ESE 04:58:04 10° ENE
STARLINK-57 4.4 04:56:50 42° NNE 04:56:50 42° NNE 04:59:50 10° NE
Cosmos 2360 Rocket 4.2 04:52:31 10° SSE 04:57:13 28° ESE 05:01:56 10° NE
STARLINK-49 4.3 04:58:19 43° NNE 04:58:19 43° NNE 05:01:25 10° NE
ATLAS 3B R/B 2.6 04:55:02 34° NW 04:58:17 86° NE 05:05:14 10° SE
STARLINK-27 4.3 04:59:55 44° NNE 04:59:55 44° NNE 05:03:03 10° NE
Cosmos 2056 Rocket 4.1 04:55:42 17° NNW 04:59:56 59° ENE 05:05:16 10° SE
NOSS 3-2 (C) 4.1 04:57:42 41° WNW 05:00:21 59° WSW 05:08:35 10° SSE
Cosmos 2341 Rocket 3.8 04:54:16 10° NNW 05:00:31 73° W 05:06:41 10° S
STARLINK-74 4.2 05:01:29 44° NNE 05:01:29 44° NNE 05:04:41 10° NE
BREEZE-M DEB (TANK) 2.6 05:00:28 67° NW 05:00:46 71° N 05:09:45 10° ENE
STARLINK 1047 3.8 05:01:18 58° SE 05:01:18 58° SE 05:04:50 10° ENE
STARLINK-39 4.2 05:03:06 45° NNE 05:03:06 45° NNE 05:06:23 10° NE
STARLINK 1037 3.7 05:03:07 61° SE 05:03:07 61° SE 05:06:44 10° ENE
Cosmos 1980 Rocket 2.7 05:03:59 41° NW 05:03:59 41° NW 05:08:48 10° NNE
STARLINK 4.2 05:04:41 45° N 05:04:41 45° N 05:08:01 10° NE
Cosmos 923 Rocket 3.9 05:03:54 46° SW 05:05:26 70° WNW 05:10:46 10° NNE
STARLINK-69 4.2 05:06:29 44° N 05:06:29 44° N 05:09:51 10° NE
STARLINK 1059 3.5 05:06:23 66° SSE 05:06:25 66° SE 05:10:09 10° ENE
ADEOS Rocket 4.1 05:01:28 10° SE 05:06:31 38° ENE 05:11:51 10° N
COSMOS 2455 3.0 05:06:00 46° WNW 05:06:34 47° NW 05:12:23 10° NNE
CZ-4B R/B 4.5 05:02:10 10° NNE 05:07:23 41° E 05:12:28 10° SSE
STARLINK-21 4.1 05:07:53 45° N 05:07:53 45° N 05:11:20 10° NE
Orbus 7S? 3.3 05:07:24 73° SW 05:07:28 74° SW 05:13:31 10° SE
STARLINK-45 4.2 05:09:43 43° N 05:09:43 43° N 05:13:13 10° NE
Cosmos 1697 Rocket 4.1 05:10:51 22° NNW 05:10:51 22° NNW 05:13:55 10° N
STARLINK 1057 3.4 05:09:41 68° SSE 05:09:50 70° SE 05:13:34 10° ENE
CZ-3 R/B 4.1 05:00:54 21° WSW 05:10:47 32° SSW 05:18:06 10° SSE
STARLINK-70 4.1 05:11:13 44° N 05:11:13 44° N 05:14:48 10° NE
Okean O Rocket 2.9 05:07:01 10° NNE 05:11:15 42° E 05:15:27 10° S
STARLINK-76 4.1 05:12:40 45° N 05:12:40 45° N 05:16:19 10° NE
Transit 2A Rocket 4.3 05:12:15 60° SW 05:12:57 78° WNW 05:17:20 10° NNE
Meteor 1-16 Rocket 4.2 05:07:06 10° SSW 05:13:00 75° WNW 05:18:50 10° N
STARLINK 1052 3.4 05:12:59 69° S 05:13:16 74° SE 05:17:01 10° ENE
FALCON 9 DEB 3.2 05:13:42 73° NE 05:13:42 73° NE 05:17:07 10° ESE
STARLINK 1040 4.2 05:14:46 33° NE 05:14:46 33° NE 05:16:32 10° ENE
STARLINK 4.1 05:14:14 44° NNW 05:14:14 44° NNW 05:17:57 10° NE
NOSS 3-4 (A) 3.3 05:11:03 29° SW 05:14:21 79° NW 05:20:46 10° NE
Genesis I 3.8 05:15:15 41° SSW 05:15:15 41° SSW 05:18:07 10° SSE
NOSS 3-4 (C) 3.3 05:11:06 28° SW 05:14:27 79° NW 05:20:53 10° NE
Lacrosse 5 2.2 05:11:45 25° SSW 05:14:43 66° SE 05:19:45 10° NE
USA 215 3.3 05:08:23 10° ESE 05:14:55 79° NE 05:18:47 27° NW
STARLINK-32 4.0 05:15:51 44° NNW 05:15:51 44° NNW 05:19:39 10° NE
Cosmos 1328 3.6 05:15:31 65° NW 05:15:56 73° W 05:19:52 10° S
STARLINK 1068 3.3 05:16:16 67° SSW 05:16:41 78° SSE 05:20:27 10° ENE
Cosmos 2058 Rocket 3.1 05:12:19 10° S 05:16:42 80° E 05:21:05 10° N
STARLINK-40 4.0 05:17:25 43° NNW 05:17:25 43° NNW 05:21:16 10° NE
CENTAUR R/B 3.2 05:12:55 28° NW 05:17:30 60° WSW 05:26:02 10° SSE
STARLINK 1029 3.2 05:18:34 64° ENE 05:18:34 64° ENE 05:21:17 10° ENE
STARLINK-42 4.2 05:18:29 37° N 05:18:29 37° N 05:21:40 10° NE
STARLINK-44 4.0 05:19:00 43° NNW 05:19:03 43° NNW 05:22:55 10° NE
Cosmos 1908 3.1 05:15:19 10° S 05:19:14 87° WNW 05:23:09 10° N
Cosmos 864 Rocket 4.5 05:13:13 10° N 05:19:28 89° E 05:25:45 10° S
STARLINK-37 4.1 05:20:44 41° NNW 05:20:52 41° NNW 05:24:43 10° NE
BREEZE M DEB (TANK) 4.3 05:12:03 26° WNW 05:21:30 78° N 05:26:19 10° E
STARLINK-36 4.1 05:22:12 41° NNW 05:22:24 42° NNW 05:26:15 10° NE
RESURS DK-1 3.2 05:18:58 10° S 05:22:58 51° ESE 05:27:00 10° NE
STARLINK 1060 3.3 05:22:53 58° SW 05:23:34 87° SE 05:27:20 10° ENE
STARLINK-68 4.1 05:24:00 39° NNW 05:24:17 40° NNW 05:28:06 10° NE
Cosmos 1606 Rocket 3.8 05:24:52 43° WNW 05:24:52 43° WNW 05:28:45 10° N
Cosmos 1726 Rocket 3.6 05:20:11 10° SSW 05:24:32 55° WNW 05:28:53 10° N
Cosmos 2218 Rocket 3.9 05:18:50 10° N 05:25:14 77° W 05:31:31 10° S
STARLINK-63 4.1 05:25:29 39° NNW 05:25:50 40° NNW 05:29:39 10° NE
STARLINK 1030 3.2 05:26:00 54° WSW 05:26:48 89° NW 05:30:34 10° ENE
STARLINK-35 4.1 05:26:58 39° NNW 05:27:24 40° NNW 05:31:13 10° NE
STARLINK-51 4.1 05:28:33 38° NW 05:29:03 39° NNW 05:32:51 10° NE
Cosmos 158 Rocket 3.7 05:24:32 10° SSW 05:29:25 85° WNW 05:34:25 10° NNE
COSMO-SKYMED 1 2.8 05:25:40 10° S 05:29:49 44° W 05:30:46 38° WNW
STARLINK 1020 3.2 05:29:33 48° WSW 05:30:30 85° NNW 05:34:17 10° ENE
STARLINK-30 4.2 05:30:09 37° NW 05:30:43 39° NNW 05:34:32 10° NE
PAYLOAD B 4.3 05:25:51 10° NNE 05:31:31 86° ESE 05:37:07 10° SSW
Cosmos 2228 3.4 05:31:19 36° WSW 05:32:11 41° WNW 05:36:21 10° N
STARLINK-72 4.2 05:31:45 36° NW 05:32:24 38° NNW 05:36:11 10° NE
STARLINK-64 4.2 05:32:27 34° NNW 05:32:51 35° NNW 05:36:21 10° NE
STARLINK 1034 3.2 05:32:42 45° WSW 05:33:46 81° NNW 05:37:33 10° ENE
USA 32 4.2 05:28:57 10° NNW 05:33:58 47° W 05:38:58 10° SSW
STARLINK-50 4.2 05:33:21 35° NW 05:34:03 38° NNW 05:37:51 10° NE
STARLINK-59 4.3 05:35:02 33° NW 05:35:49 37° NNW 05:39:36 10° NE
STARLINK-56 4.3 05:36:29 33° NW 05:37:21 37° NNW 05:41:08 10° NE
Cosmos 1959 Rocket 4.4 05:31:37 10° NNW 05:37:38 63° W 05:43:43 10° S
STARLINK-29 3.1 05:37:20 45° WNW 05:38:19 87° SSW 05:41:51 10° ESE
Starlink (trailer) 4.3 05:38:06 32° NW 05:39:03 37° NNW 05:42:49 10° NE
STARLINK-52 3.1 05:39:19 42° WNW 05:40:24 88° NNE 05:43:54 10° ESE
STARLINK-38 4.3 05:39:42 31° NW 05:40:42 36° NNW 05:44:29 10° NE
STARLINK 1033 3.3 05:39:26 37° WSW 05:40:48 74° NNW 05:44:35 10° ENE
METEOR-M 4.1 05:35:40 10° N 05:40:57 62° WNW 05:46:13 10° SSW
Cosmos 1452 Rocket 4.4 05:37:00 10° NNW 05:42:08 50° ENE 05:47:13 10° SE
Meteor 2-10 4.4 05:37:09 10° SW 05:42:18 42° WNW 05:47:19 10° N
STARLINK-65 4.3 05:41:17 30° NW 05:42:21 36° NNW 05:46:07 10° NE
Meteor 2-12 Rocket 4.5 05:37:54 10° N 05:44:03 87° E 05:50:12 10° S
STARLINK-53 4.4 05:42:58 29° NW 05:44:08 35° NNW 05:47:52 10° NE
Cosmos 1703 3.9 05:44:41 32° WNW 05:45:17 33° W 05:48:49 10° SSW
Cosmos 2278 Rocket 4.4 05:42:47 10° N 05:46:52 20° NE 05:50:56 10° E
Meteor 1-11 4.3 05:43:32 10° NNW 05:49:00 55° W 05:54:31 10° S
ATLAS 2AS CENTAUR R/B 3.3 05:43:13 16° WSW 05:49:36 50° NW 05:57:19 10° NE
MOS 1-B 4.4 05:46:36 10° N 05:52:16 56° WNW 05:57:53 10° SW
STARLINK-60 3.9 05:51:51 28° WSW 05:52:45 34° SW 05:55:49 10° SSE
Cosmos 1680 Rocket 4.0 05:48:12 10° SW 05:53:08 38° WNW 05:58:06 10° N
STARLINK-58 4.5 05:52:12 24° NW 05:53:46 33° N 05:57:26 10° NE
Cosmos 2366 rocket 4.2 05:48:03 10° NNW 05:54:09 50° W 06:00:14 10° SSW
STARLINK-33 4.4 05:53:13 23° NW 05:54:22 28° N 05:57:30 10° NE
Cosmos 2322 Rocket 2.2 05:49:50 10° SW 05:55:26 59° WNW 06:01:05 10° NNE
STARLINK-62 4.5 05:53:53 24° NW 05:55:31 33° N 05:59:11 10° NE
STARLINK-66 4.4 05:54:47 23° NW 05:56:00 28° N 05:59:08 10° NE
STARLINK-43 4.3 05:54:39 21° NW 05:56:43 39° NNE 06:00:14 10° E
Cosmos 2263 Rocket 3.1 05:55:07 20° WNW 05:57:29 27° WSW 06:02:09 10° SSW
STARLINK-55 4.5 05:56:25 22° NW 05:57:43 28° N 06:00:50 10° NE
Cosmos 1371 Rocket 4.5 05:54:14 13° NW 05:58:30 40° WSW 06:03:26 10° S
CZ-4B DEB 4.3 05:53:12 10° N 05:58:34 52° WNW 06:03:53 10° SW
STARLINK 1035 3.4 05:57:35 25° W 05:59:20 52° NNW 06:02:47 10° NE
CZ-2C R/B 4.4 05:59:33 10° NNW 06:00:30 12° NW 06:00:30 12° NW
NOAA 6 4.0 05:57:48 10° N 06:02:57 63° WNW 06:08:03 10° SSW
STARLINK 1027 3.5 06:01:39 23° W 06:03:32 48° NNW 06:07:00 10° NE
STARLINK 1050 4.4 06:00:25 10° SW 06:04:27 53° SE 06:08:29 10° ENE
STARLINK 1044 3.6 06:03:33 20° W 06:05:57 52° NNW 06:09:41 10° NE
OE (NEXTSAT) 4.4 06:03:44 18° WSW 06:06:14 75° S 06:09:45 10° E
Cosmos 1340 Rocket 3.3 06:02:29 10° S 06:06:20 62° E 06:10:13 10° NNE
Lacrosse 5 rocket 2.8 06:03:36 13° NW 06:07:12 32° NNE 06:11:12 10° E
Cosmos 1420 Rocket 4.0 06:03:25 10° NNW 06:08:44 77° WSW 06:14:02 10° SSE
STARLINK 1055 4.2 06:05:19 10° SW 06:09:23 57° SE 06:13:27 10° ENE
Cosmos 1844 Rocket 2.7 06:03:46 10° NNW 06:09:26 88° ENE 06:15:06 10° SSE
Cosmos 2058 3.2 06:08:16 10° N 06:12:29 74° E 06:16:42 10° SSE
STARLINK 1022 4.1 06:10:16 10° SW 06:14:20 62° SE 06:18:27 10° ENE
Cosmos 2333 Rocket 3.7 06:09:26 10° S 06:14:48 41° ESE 06:20:10 10° NE
STARLINK 1031 3.7 06:12:51 16° W 06:15:34 46° NNW 06:19:11 10° NE
STARLINK 1028 3.7 06:14:07 19° WNW 06:15:39 32° NNW 06:18:20 10° NE
STARLINK 1021 3.7 06:14:21 19° WNW 06:15:53 32° NNW 06:18:34 10° NE
STARLINK 1019 3.7 06:14:36 19° WNW 06:16:07 31° NNW 06:18:46 10° NE
STARLINK 1012 3.7 06:14:46 19° WNW 06:16:19 31° NNW 06:19:00 10° NE
STARLINK 1010 3.7 06:15:01 19° WNW 06:16:34 31° NNW 06:19:15 10° NE
CZ-2C R/B 4.4 06:12:13 10° SSE 06:16:41 57° ENE 06:21:06 10° N
STARLINK 1026 3.7 06:15:13 19° WNW 06:16:48 31° NNW 06:19:29 10° NE
STARLINK 1013 3.7 06:15:26 18° WNW 06:17:01 31° NNW 06:19:42 10° NE
STARLINK 1009 3.7 06:15:39 18° WNW 06:17:15 31° NNW 06:19:56 10° NE
IRS-1C Rocket 4.5 06:12:01 10° NNE 06:17:18 70° ESE 06:22:33 10° S
STARLINK 1015 3.7 06:15:52 18° WNW 06:17:28 31° NNW 06:20:08 10° NE
STARLINK 1016 3.7 06:16:05 18° WNW 06:17:42 31° NNW 06:20:22 10° NE
STARLINK 1008 3.7 06:16:17 18° WNW 06:17:54 31° NNW 06:20:35 10° NE
ALOS 3.2 06:14:10 10° N 06:17:57 25° WNW 06:21:44 10° WSW
STARLINK 1025 3.7 06:16:43 18° WNW 06:18:21 31° NNW 06:21:02 10° NE
STARLINK 1017 3.7 06:16:56 18° WNW 06:18:36 31° NNW 06:21:16 10° NE
STARLINK 1023 3.7 06:17:09 18° WNW 06:18:49 31° NNW 06:21:29 10° NE
STARLINK 1007 3.7 06:17:22 17° WNW 06:19:02 31° NNW 06:21:42 10° NE
STARLINK 1024 3.8 06:16:14 15° W 06:19:07 45° NNW 06:22:44 10° NE
STARLINK 1048 3.7 06:17:35 17° WNW 06:19:16 31° NNW 06:21:56 10° NE
STARLINK 1042 4.0 06:15:12 10° SW 06:19:18 67° SE 06:23:26 10° ENE
STARLINK 1049 3.7 06:17:49 17° WNW 06:19:30 30° NNW 06:22:10 10° NE
STARLINK 1051 3.7 06:18:01 17° WNW 06:19:42 30° NNW 06:22:22 10° NE
Cosmos 371 Rocket 4.2 06:17:54 10° NNW 06:22:39 51° ENE 06:27:20 10° SE
STARLINK 1056 3.9 06:20:09 10° SW 06:24:16 72° SE 06:28:24 10° ENE
Cosmos 1812 Rocket 3.5 06:20:47 10° SSW 06:25:07 67° W 06:29:33 10° N
STARLINK 1032 3.9 06:22:26 12° W 06:25:35 42° NNW 06:29:09 10° NE
Helios 1A Rocket 3.3 06:23:14 10° N 06:27:09 41° WNW 06:31:02 10° SW
BREEZE M DEB (TANK) 3.3 06:24:47 12° W 06:27:28 63° N 06:35:10 10° ENE
STARLINK 1011 3.9 06:25:51 11° W 06:29:12 41° NNW 06:32:46 10° NE
STARLINK 1054 3.8 06:25:05 10° SW 06:29:13 78° SSE 06:33:22 10° ENE
STARLINK 1036 4.0 06:29:06 10° W 06:32:35 40° NNW 06:36:08 10° NE
Alouette 2 Rocket 3.4 06:28:40 10° SSW 06:32:50 52° WNW 06:36:21 10° N
EXPRESS MD2 2.7 06:31:10 12° WNW 06:33:36 43° N 06:35:40 10° E
STARLINK 1062 3.7 06:30:02 10° SW 06:34:10 83° SSE 06:38:20 10° ENE
STARLINK 1014 4.0 06:33:40 11° WNW 06:36:15 28° NNW 06:38:58 10° NE
SL-16 R/B 3.1 06:33:27 10° WSW 06:38:14 27° NW 06:43:03 10° N
CZ-2C R/B 4.2 06:33:27 10° SE 06:38:17 37° ENE 06:43:14 10° N
Cosmos 1300 3.4 06:35:33 10° SW 06:38:59 31° WNW 06:42:26 10° N
STARLINK 1053 3.7 06:35:03 10° WSW 06:39:11 88° SSE 06:43:21 10° ENE
STARLINK 1047 4.1 06:35:51 10° W 06:39:22 37° NNW 06:42:53 10° NE
H-2A R/B 3.2 06:36:37 10° N 06:40:19 41° WNW 06:43:58 10° SW
Cosmos 2360 Rocket 2.4 06:35:25 10° SW 06:40:55 51° WNW 06:46:28 10° NNE
STARLINK 1037 4.1 06:37:46 10° W 06:41:17 37° NNW 06:44:48 10° NE
Cosmos 1174 3.7 06:37:38 10° SSW 06:41:37 78° ESE 06:44:56 10° NE
Cosmos 2333 4.3 06:35:54 10° SSW 06:41:42 89° ESE 06:47:31 10° NNE
Cosmos 2322 3.7 06:37:20 10° SSW 06:43:00 80° WNW 06:48:43 10° NNE
CZ-4 R/B 3.0 06:39:13 10° NNE 06:43:15 42° E 06:47:13 10° S
Cosmos 1048 Rocket 4.1 06:38:42 10° SSW 06:43:59 86° ESE 06:49:13 10° NNE
STARLINK 1061 3.6 06:40:02 10° WSW 06:44:10 86° NNW 06:48:21 10° ENE
STARLINK 1059 4.1 06:41:13 10° W 06:44:43 36° NNW 06:48:13 10° NE
Cosmos 2219 Rocket 2.7 06:39:07 10° SSW 06:44:43 67° ESE 06:50:23 10° NNE
